Weather History for Caldwell, NJ

Change the Weather History Date:

Saturday, February 9, 2013

  Actual Average Record
Temperature  
Mean Temperature 26 °F -  
Max Temperature 33 °F 36 °F 58 °F (1965)
Min Temperature 19 °F 17 °F -6 °F (1963)
Degree Days  
Heating Degree Days 39    
Moisture  
Dew Point 16 °F    
Average Humidity 67    
Maximum Humidity 100    
Minimum Humidity 28    
Precipitation  
Precipitation 0.24 in - - ()
Sea Level Pressure  
Sea Level Pressure 29.99 in    
Wind  
Wind Speed 8 mph (NNW)    
Max Wind Speed 20 mph    
Max Gust Speed 34 mph    
Visibility 7 miles    
Events Fog , Snow    
Averages and records for this station are not official NWS values.
T = Trace of Precipitation, MM = Missing Value Source: NWS Daily Summary

Daily Weather History Graph

Daily Weather History Graph

Search for Another Location

Airport:

Trip Planner

Search our weather history database for the weather conditions in past years. The results will help you decide how hot, cold, wet, or windy it might be!

Date:

Astronomy

Feb. 09, 2013 Rise Set
Actual Time 6:58 AM EST 5:24 PM EST
Civil Twilight 6:30 AM EST 5:53 PM EST
Nautical Twilight 5:57 AM EST 6:25 PM EST
Astronomical Twilight 5:25 AM EST 6:57 PM EST
Moon 6:08 AM EST (2/9) 5:04 PM EST (2/9)
Length of Visible Light 11h 23m
Length of Day
10h 26m
Waning Crescent, 0% of the Moon is Illuminated
Feb 9
Waning Crescent
Feb 10
New
Feb 17
First Quarter
Feb 25
Full
Mar 4
Last Quarter

Hourly Weather History & Observations

Time (EST) Temp. Windchill Dew Point Humidity Pressure Visibility Wind Dir Wind Speed Gust Speed Precip Events Conditions
12:21 AM 26.6 °F 18.2 °F 26.6 °F 100% 29.78 in 0.2 mi NNE 8.1 mph - 0.04 in Fog , Snow Heavy Snow
12:29 AM 26.6 °F 20.0 °F 26.6 °F 100% 29.78 in 0.5 mi NNE 5.8 mph - 0.05 in Fog , Snow Snow
12:53 AM 27.0 °F 23.0 °F 25.0 °F 92% 29.80 in 0.5 mi NE 3.5 mph - 0.08 in Fog , Snow Snow
1:36 AM 28.4 °F 22.2 °F 26.6 °F 93% 29.78 in 1.0 mi NNE 5.8 mph - 0.03 in Snow Light Snow
1:53 AM 28.0 °F 21.7 °F 27.0 °F 96% 29.82 in 0.8 mi Variable 5.8 mph - 0.04 in Snow Light Snow
1:58 AM 28.4 °F 23.3 °F 19.4 °F 69% 29.80 in 0.5 mi North 4.6 mph - 0.01 in Snow Snow
2:08 AM 28.4 °F 23.3 °F 24.8 °F 86% 29.80 in 0.2 mi Variable 4.6 mph - 0.04 in Fog , Snow Heavy Snow
2:20 AM 28.4 °F 22.2 °F 26.6 °F 93% 29.81 in 0.2 mi North 5.8 mph - 0.08 in Fog , Snow Heavy Snow
2:36 AM 28.4 °F 23.3 °F 26.6 °F 93% 29.80 in 0.5 mi Variable 4.6 mph - 0.11 in Fog , Snow Snow
2:50 AM 28.4 °F 22.2 °F 26.6 °F 93% 29.80 in 1.5 mi Variable 5.8 mph - 0.12 in Snow Light Snow
2:53 AM 28.9 °F 22.8 °F 27.0 °F 92% 29.82 in 2.0 mi NNW 5.8 mph - 0.12 in Snow Light Snow
3:03 AM 28.4 °F 22.2 °F 26.6 °F 93% 29.80 in 6.0 mi NNW 5.8 mph - 0.00 in Snow Light Snow
3:12 AM 28.4 °F 21.2 °F 26.6 °F 93% 29.81 in 7.0 mi NNW 6.9 mph - 0.00 in Snow Light Snow
3:53 AM 30.0 °F 22.4 °F 25.0 °F 82% 29.84 in 9.0 mi NNW 8.1 mph - 0.00 in   Overcast
4:53 AM 28.9 °F 19.8 °F 24.1 °F 82% 29.86 in 9.0 mi NNW 10.4 mph 16.1 mph N/A   Overcast
5:53 AM 28.9 °F 19.8 °F 21.0 °F 72% 29.88 in 10.0 mi NNW 10.4 mph 16.1 mph 0.00 in   Scattered Clouds
6:53 AM 28.9 °F 18.6 °F 21.0 °F 72% 29.91 in 8.0 mi NW 12.7 mph 19.6 mph 0.00 in Snow Light Snow
7:53 AM 26.1 °F 13.6 °F 16.0 °F 66% 29.95 in 9.0 mi NNW 16.1 mph 27.6 mph 0.00 in   Clear
8:53 AM 25.0 °F 10.9 °F 14.0 °F 63% 29.99 in 7.0 mi NW 19.6 mph 34.5 mph 0.00 in   Clear
9:53 AM 25.0 °F 11.3 °F 14.0 °F 63% 30.01 in 10.0 mi NW 18.4 mph 28.8 mph N/A   Clear
10:53 AM 27.0 °F 14.7 °F 12.0 °F 53% 30.05 in 10.0 mi NNW 16.1 mph 27.6 mph 0.00 in   Clear
11:53 AM 28.9 °F 17.3 °F 12.0 °F 49% 30.06 in 10.0 mi NNW 16.1 mph 31.1 mph 0.00 in   Clear
12:53 PM 30.9 °F 20.7 °F 10.0 °F 42% 30.07 in 10.0 mi NNW 13.8 mph 24.2 mph 0.00 in   Clear
1:53 PM 32.0 °F 22.1 °F 9.0 °F 38% 30.09 in 10.0 mi NW 13.8 mph 21.9 mph 0.00 in   Clear
2:53 PM 32.0 °F 21.2 °F 3.9 °F 31% 30.11 in 10.0 mi NW 16.1 mph 27.6 mph N/A   Clear
3:53 PM 33.1 °F 26.9 °F 3.0 °F 28% 30.13 in 10.0 mi Variable 6.9 mph 23.0 mph N/A   Clear
4:53 PM 30.0 °F 21.1 °F 3.0 °F 32% 30.17 in 10.0 mi NW 10.4 mph 25.3 mph N/A   Clear
5:53 PM 28.0 °F 16.5 °F 5.0 °F 38% 30.20 in 10.0 mi NW 15.0 mph 24.2 mph N/A   Clear
6:53 PM 27.0 °F 17.3 °F 3.0 °F 36% 30.24 in 10.0 mi NNW 10.4 mph 23.0 mph N/A   Clear
7:53 PM 25.0 °F 15.5 °F 3.0 °F 39% 30.27 in 10.0 mi NNW 9.2 mph 19.6 mph N/A   Clear
8:53 PM 23.0 °F 18.4 °F 3.0 °F 42% 30.32 in 10.0 mi Variable 3.5 mph - N/A   Clear
9:53 PM 21.9 °F 14.5 °F 3.0 °F 44% 30.35 in 10.0 mi NNW 5.8 mph - N/A   Clear
10:53 PM 19.9 °F 13.4 °F 3.9 °F 50% 30.36 in 10.0 mi NNW 4.6 mph - N/A   Clear
11:53 PM 19.0 °F 11.1 °F 3.9 °F 52% 30.38 in 10.0 mi NNW 5.8 mph - N/A   Clear